TimeCDT,TemperatureF,Dew PointF,Humidity,Sea Level PressureIn,VisibilityMPH,Wind Direction,Wind SpeedMPH,Gust SpeedMPH,PrecipitationIn,Events,Conditions,WindDirDegrees,DateUTC
12:53 AM,75.9,69.1,79,29.86,10.0,South,5.8,-,N/A,,Clear,190,2013-08-21 05:53:00
1:53 AM,75.9,68.0,76,29.86,10.0,SSW,6.9,-,N/A,,Clear,200,2013-08-21 06:53:00
2:53 AM,75.0,68.0,79,29.86,10.0,Variable,5.8,-,N/A,,Clear,0,2013-08-21 07:53:00
3:53 AM,73.9,68.0,82,29.85,10.0,South,6.9,-,N/A,,Clear,190,2013-08-21 08:53:00
4:25 AM,73.4,68.0,83,29.89,10.0,Variable,4.6,-,N/A,,Mostly Cloudy,0,2013-08-21 09:25:00
4:53 AM,73.9,68.0,82,29.88,10.0,Variable,3.5,-,N/A,,Overcast,0,2013-08-21 09:53:00
5:01 AM,73.4,68.0,83,29.90,10.0,SSW,3.5,-,N/A,,Mostly Cloudy,200,2013-08-21 10:01:00
5:53 AM,71.1,68.0,90,29.88,10.0,Calm,Calm,-,N/A,,Scattered Clouds,0,2013-08-21 10:53:00
6:00 AM,71.6,68.0,88,29.90,9.0,Calm,Calm,-,N/A,,Mostly Cloudy,0,2013-08-21 11:00:00
6:09 AM,71.6,68.0,88,29.90,9.0,Calm,Calm,-,N/A,,Mostly Cloudy,0,2013-08-21 11:09:00
6:17 AM,69.8,68.0,94,29.90,7.0,Calm,Calm,-,N/A,,Overcast,0,2013-08-21 11:17:00
6:27 AM,69.8,68.0,94,29.89,6.0,South,3.5,-,N/A,,Mostly Cloudy,180,2013-08-21 11:27:00
6:50 AM,71.6,68.0,88,29.91,8.0,Calm,Calm,-,N/A,,Mostly Cloudy,0,2013-08-21 11:50:00
6:53 AM,72.0,68.0,87,29.89,8.0,Calm,Calm,-,N/A,,Mostly Cloudy,0,2013-08-21 11:53:00
7:20 AM,71.6,69.8,94,29.91,8.0,SSE,4.6,-,N/A,,Mostly Cloudy,150,2013-08-21 12:20:00
7:53 AM,73.0,68.0,84,29.89,9.0,South,8.1,-,N/A,,Clear,170,2013-08-21 12:53:00
8:53 AM,75.0,69.1,82,29.87,10.0,Variable,4.6,-,N/A,,Clear,0,2013-08-21 13:53:00
9:53 AM,79.0,70.0,74,29.85,10.0,South,6.9,-,N/A,,Clear,190,2013-08-21 14:53:00
10:53 AM,81.0,70.0,69,29.87,10.0,Variable,6.9,-,N/A,,Mostly Cloudy,0,2013-08-21 15:53:00
11:53 AM,78.1,70.0,76,29.91,10.0,Variable,4.6,-,N/A,,Overcast,0,2013-08-21 16:53:00
12:53 PM,78.1,71.1,79,29.91,9.0,Variable,3.5,-,N/A,,Overcast,0,2013-08-21 17:53:00
1:13 PM,80.6,71.6,74,29.92,9.0,Variable,3.5,-,N/A,,Mostly Cloudy,0,2013-08-21 18:13:00
1:43 PM,80.6,71.6,74,29.92,9.0,SSW,3.5,-,N/A,,Mostly Cloudy,210,2013-08-21 18:43:00
1:53 PM,80.1,71.1,74,29.91,9.0,SW,3.5,-,N/A,,Overcast,220,2013-08-21 18:53:00
2:53 PM,78.1,73.0,84,29.91,2.5,WNW,3.5,-,0.01,Rain,Rain,300,2013-08-21 19:53:00
3:03 PM,77.0,73.4,89,29.93,5.0,Calm,Calm,-,0.00,Rain-Thunderstorm,Light Rain,0,2013-08-21 20:03:00
3:22 PM,78.8,75.2,89,29.93,6.0,Variable,3.5,-,0.00,Thunderstorm,Overcast,0,2013-08-21 20:22:00
3:45 PM,80.6,73.4,79,29.92,8.0,Calm,Calm,-,0.00,,Mostly Cloudy,0,2013-08-21 20:45:00
3:53 PM,81.0,73.9,79,29.91,10.0,Calm,Calm,-,0.00,,Mostly Cloudy,0,2013-08-21 20:53:00
4:53 PM,84.9,66.0,53,29.89,10.0,Variable,5.8,-,N/A,,Mostly Cloudy,0,2013-08-21 21:53:00
5:53 PM,84.0,57.9,41,29.91,10.0,Variable,3.5,-,N/A,,Clear,0,2013-08-21 22:53:00
6:53 PM,82.0,60.1,47,29.95,10.0,Calm,Calm,-,N/A,,Clear,0,2013-08-21 23:53:00
7:53 PM,72.0,64.9,78,29.98,10.0,Calm,Calm,-,N/A,,Clear,0,2013-08-22 00:53:00
8:53 PM,64.9,62.1,90,30.01,10.0,Calm,Calm,-,N/A,,Clear,0,2013-08-22 01:53:00
9:53 PM,60.1,57.9,93,30.02,10.0,Calm,Calm,-,N/A,,Clear,0,2013-08-22 02:53:00
10:53 PM,59.0,57.9,96,30.03,10.0,Calm,Calm,-,N/A,,Clear,0,2013-08-22 03:53:00
11:53 PM,57.0,55.9,96,30.05,10.0,Calm,Calm,-,N/A,,Clear,0,2013-08-22 04:53:00